Regional Weather Roundup
Issued by NWS Spokane, WA

Home | Current Version | Previous Version | Text Only | Print | Product List | Glossary On
Versions: 1 2 3 4 5 6 7 8 9 10 11 12 13 14 15 16 17 18 19 20 21 22 23 24 25 26 27 28 29 30 31 32 33 34 35 36 37 38 39 40 41 42 43 44 45 46 47 48 49 50
434
NZUS01 KOTX 292325
RWROTX

Eastern Washington/Northern Idaho Roundup
National Weather Service, Spokane WA
400 PM PDT MON MAY 29 2017

Note: "fair" indicated few or no clouds below 12,000 feet with no
significant weather and/or obstructions to visibility.

...Northeast Washington and Northern Idaho Panhandle...

CITY           SKY/WX    TMP DP  RH WIND       PRES   REMARKS
Spokane Intl   MOSUNNY   86  38  18 CALM      29.99F
Spokane Downto SUNNY     89  37  16 VRB6      29.97F
Coeur d Alene  SUNNY     86  40  19 W6        29.99F
Deer Park      SUNNY     87  36  16 CALM      29.99F
Sandpoint      SUNNY     82  43  24 SE7       29.97F
Bonners Ferry  FAIR      84  36  17 CALM      29.98F

...Southeast Washington and southern Idaho Panhandle...

CITY           SKY/WX    TMP DP  RH WIND       PRES   REMARKS
Walla Walla    SUNNY     91  43  18 CALM      29.91F
Pullman/Moscow SUNNY     85  44  23 N5        30.00F
Lewiston       MOSUNNY   91  50  24 VRB7      29.92F
Lowell           N/A     84  41  21 VRB3      29.91F
Grangeville    FAIR      82  41  23 NW6       30.02F

...Columbia Basin...

CITY           SKY/WX    TMP DP  RH WIND       PRES   REMARKS
Ephrata        SUNNY     92  38  15 VRB7      29.92F
Moses Lake     SUNNY     93  36  13 NE7       29.92F
Pasco          SUNNY     94  53  25 NW9       29.87F HX  91
Richland       CLEAR     95  42  15 N5        29.86F HX  91
Hermiston      SUNNY     96  42  15 NE10      29.86F HX  92
Pendleton      SUNNY     90  49  24 N8        29.91F

...East Slopes Cascades...

CITY           SKY/WX    TMP DP  RH WIND       PRES   REMARKS
The Dalles     SUNNY     89  57  33 NW12      29.81F
Yakima         SUNNY     94  45  18 CALM      29.91F HX  90
Ellensburg     SUNNY     93  44  18 NE5       29.94F
Stampede Pass  MOSUNNY   77  42  28 VRB5      30.07F
Wenatchee      SUNNY     91  39  16 MISG      29.91F
Omak           SUNNY     89  46  22 S7        29.93F
Chelan           N/A     90  37  15 MISG        N/A
Sunnyside      CLEAR     90  50  25 NE3       29.87F

...Southern British Columbia...

CITY           SKY/WX    TMP DP  RH WIND       PRES   REMARKS
Penticton      MOSUNNY   90  46  22 S5        29.89F
Castlegar      MOSUNNY   86  48  26 N3        29.92
Cranbrook      PTSUNNY   79  41  25 VRB5      30.04F
Osoyoos          N/A     90  48  24 S7          N/A
Creston          N/A     84  52  32 W3          N/A

...Western Montana...

CITY           SKY/WX    TMP DP  RH WIND       PRES   REMARKS
Kalispell      PTCLDY    80  43  26 VRB3      30.04F
Missoula       SUNNY     82  38  20 W6        30.04F

...Neighboring Cities...

CITY           SKY/WX    TMP DP  RH WIND       PRES   REMARKS
Seattle        MOSUNNY   70  55  59 VRB7      29.95F
Portland       MOSUNNY   67  54  63 NE6       29.97F
Boise          SUNNY     87  32  14 S7        29.99F
Great Falls    SUNNY     77  40  26 VRB5      30.11F
Calgary        MOSUNNY   72  41  33 SE7G21    30.12F



USA.gov is the U.S. government's official web portal to all federal, state and local government web resources and services.